Regional Weather Roundup
Issued by NWS Boston, MA

Current Version | Previous Version | Text Only | Print | Product List | Glossary On
Versions: 1 2 3 4 5 6 7 8 9 10 11 12 13 14 15 16 17 18 19 20 21 22 23 24 25 26 27
000 ASUS41 KBOX 231504 RWRBOX REGIONAL WEATHER ROUNDUP NATIONAL WEATHER SERVICE BOSTON/NORTON MA 1100 AM EDT MON MAY 23 2022 NOTE: "FAIR" INDICATES FEW OR NO CLOUDS BELOW 12,000 FEET WITH NO SIGNIFICANT WEATHER AND/OR OBSTRUCTIONS TO VISIBILITY. MAZALL-231600- EASTERN MASSACHUSETTS CITY SKY/WX TMP DP RH WIND PRES REMARKS BOSTON PTSUNNY 66 48 52 N10 30.17R BEVERLY MOSUNNY 66 50 56 N9G18 30.16S LAWRENCE SUNNY 67 50 54 VRB5G17 30.19S BEDFORD PTSUNNY 68 49 50 N13 30.17R BLUE HILL NOT AVBL NORWOOD CLOUDY 68 48 48 N10 30.17R MARSHFIELD CLOUDY 64 48 55 VRB7G15 30.17R PLYMOUTH CLOUDY 66 51 58 N13 30.16R TAUNTON PTSUNNY 68 49 50 MISG 30.16R NEW BEDFORD CLOUDY 67 49 52 N8 30.15R $$ MAZALL-231600- CAPE COD AND THE ISLANDS CITY SKY/WX TMP DP RH WIND PRES REMARKS FALMOUTH CLOUDY 61 50 67 N14G23 30.16R HYANNIS CLOUDY 64 51 62 N16G24 30.14R CHATHAM CLOUDY 67 46 47 VRB7 30.15R PROVINCETOWN CLOUDY 59 52 77 N12 30.18R NANTUCKET CLOUDY 64 52 64 N20G26 30.13R MARTHAS VNYRD CLOUDY 69 53 56 N17G24 30.14R $$ MAZALL-231600- CENTRAL AND WESTERN MASSACHUSETTS CITY SKY/WX TMP DP RH WIND PRES REMARKS WORCESTER SUNNY 63 43 48 VRB7 30.19R FITCHBURG SUNNY 67 40 37 VRB7 30.19S ORANGE SUNNY 63 43 48 N15G21 30.22S SPRINGFIELD NOT AVBL WESTFIELD SUNNY 66 43 43 N12G20 30.21R NORTH ADAMS MOSUNNY 63 43 48 VRB5 30.24S PITTSFIELD MOSUNNY 59 40 49 N9 30.22S $$ RIZALL-231600- RHODE ISLAND CITY SKY/WX TMP DP RH WIND PRES REMARKS PROVIDENCE PTSUNNY 67 47 48 N12 30.17S NEWPORT CLOUDY 64 49 57 N10G17 30.16R BLOCK ISLAND CLOUDY 63 48 58 N13 30.17R SMITHFIELD SUNNY 66 48 52 NE10 30.18R WESTERLY CLOUDY 66 47 50 N10 30.16R $$ CTZALL-231600- CONNECTICUT CITY SKY/WX TMP DP RH WIND PRES REMARKS BRADLEY INTL MOSUNNY 66 44 45 NE15 30.21R HARTFORD SUNNY 66 45 46 N20 30.20S BRIDGEPORT SUNNY 68 47 46 N12G20 30.19R DANBURY SUNNY 66 45 46 NE12 30.22S GROTON PTSUNNY 69 49 48 N13G18 30.16S NEW HAVEN SUNNY 69 46 43 N15G26 30.19R CHESTER FAIR 68 43 40 N14G20 30.18S MERIDEN SUNNY 67 45 45 N15 30.19S WILLIMANTIC SUNNY 66 47 50 NE10 30.20R OXFORD SUNNY 64 48 56 N12G18 30.21R $$ MEZ002-015-021-024-NHZ003-005-008-011-012-014-VTZ005-008-231600- NORTHERN NEW ENGLAND CITY SKY/WX TMP DP RH WIND PRES REMARKS PORTLAND ME CLOUDY 63 42 46 N15 30.17S BANGOR ME PTSUNNY 59 43 55 N14 30.16R CONCORD NH SUNNY 63 40 42 NW10G23 30.20S MANCHESTER NH PTSUNNY 67 41 38 NW15 30.18R NASHUA NH MOSUNNY 65 43 44 N12 30.20R PORTSMOUTH NH PTSUNNY 67 47 48 NW8 30.17S JAFFREY NH SUNNY 62 42 47 MISG 30.22R KEENE NH SUNNY 62 42 47 NW13 30.22F BURLINGTON VT MOSUNNY 56 39 53 NW14 30.31R MT. WASHINGTON PTSUNNY 30 19 64 NW46G62 N/A WCI 12 $$ NYZ052-076-231600- EASTERN NEW YORK CITY SKY/WX TMP DP RH WIND PRES REMARKS ALBANY PTSUNNY 61 46 57 N8 30.28S NEW YORK CITY PTSUNNY 66 41 40 N17 30.20S $$ ANZALL-231600- MARINE OBSERVATIONS STATION/POSITION TIME TEMP WIND PRES VSBY WAVE AIR SEA DIR/SP/G HT/PER (UTC) (F) (DEG/KT/KT) (MB) (MI) (FT/S) BOSTON BUOY 1440 53 10/ 8/ 10 1022.2R BUZZARDS BAY 1400 62 350/ 16/ 17 1020.8R NANTUCKET SOUND 1440 60 55 360/ 17/ 21 1020.7R MASS BAY-STELLWA NOT AVBL ISLE OF SHOALS 1400 59 20/ 5/ 7 1020.9R S OF BLOCK IS 1426 56 N/A 3/ 6 $$ ......................KEY......................... SKY/WX - SKY CONDITION/PRESENT WEATHER TMP - TEMPERATURE IN FAHRENHEIT DWPT - DEWPOINT IN FAHRENHEIT RH - RELATIVE HUMIDITY IN PERCENT WIND - DIRECTION AND SPEED IN MPH PRES - MEAN SEA LEVEL PRESSURE IN INCHES OF HG WCI - WIND CHILL INDEX VSB - VISIBILITY IN MILES HX - HEAT INDEX TC - TEMPERATURE IN CELSIUS VRB - VARIABLE WIND DIRECTION N/A - NOT AVAILABLE

USA.gov is the U.S. government's official web portal to all federal, state and local government web resources and services.